Location: Lussas
(44.6119°N, 4.4726°E)
Time: 13:47:22
(UTC+00:00)

Cosmos 1603 - Pass Details

Date: 26 November 2020
Orbit: 831 x 859 km, 71.0° (Epoch: 26 January)

Event Time Altitude Azimuth Distance (km) Brightness Sun altitude
Exits shadow 04:07:20 48° 13° (NNE) 1,077 4.2 -29.0°
Maximum altitude 04:08:34 60° 61° (ENE) 955 4.1 -28.8°
Drops below altitude 10° 04:14:06 10° 141° (SE) 2,448 6.6 -27.8°
Sets 04:16:34 0° 145° (SE) 3,383 7.3 -27.4°
